Edwards AFB North Base, CA

3:15 AM PST on November 17, 2019 (GMT -0800)
Edwards AFB North Base

Weather History for K9L2 - September, 2019

Change the Weather History Date:

Monday, September 2, 2019

  Actual Average (WUND) Record (WUND)
Temperature  
Mean Temperature 88 °F -  
Max Temperature 102 °F - - (-1)
Min Temperature 73 °F - - (-1)
Cooling Degree Days 22    
Growing Degree Days 38 (Base 50)    
Moisture  
Dew Point 54 °F    
Average Humidity 35    
Maximum Humidity 57    
Minimum Humidity 18    
Precipitation  
Precipitation 0.00 in - - ()
Sea Level Pressure  
Sea Level Pressure 29.90 in    
Wind  
Wind Speed 7 mph ()    
Max Wind Speed 24 mph    
Max Gust Speed 29 mph    
Visibility 7.5 miles    
Events Thunderstorm    
Averages and records for this station are not official NWS values.
T = Trace of Precipitation, MM = Missing Value Source: Averaged Metar Reports

Daily Weather History Graph

Daily Weather History Graph

Search for Another Location

Airport or City:

Astronomy

Sep. 02, 2019 Rise Set
Actual Time 6:24 AM PDT 7:16 PM PDT
Civil Twilight 5:58 AM PDT 7:42 PM PDT
Nautical Twilight 5:28 AM PDT 8:13 PM PDT
Astronomical Twilight 4:56 AM PDT 8:44 PM PDT
Moon 10:04 AM PDT (9/2) 9:50 PM PDT (9/2)
Length of Visible Light 13h 43m
Length of Day
12h 52m
Waxing Crescent, 16% of the Moon is Illuminated
Sep 2
Waxing Crescent
Sep 5
First Quarter
Sep 13
Full
Sep 21
Last Quarter
Sep 28
New

Hourly Weather History & Observations

Time (PDT) Temp. Heat Index Dew Point Humidity Pressure Visibility Wind Dir Wind Speed Gust Speed Precip Events Conditions
12:58 AM 75.6 °F - 44.4 °F 33% 29.88 in 10.0 mi SSE 6.9 mph - N/A   Clear
2:58 AM 77.7 °F - 41.0 °F 27% 29.90 in 10.0 mi ESE 6.9 mph - N/A   Partly Cloudy
3:58 AM 77.5 °F - 52.5 °F 42% 29.92 in 7.0 mi ENE 5.8 mph - N/A   Partly Cloudy
4:13 AM 77.0 °F - 55.4 °F 47% 29.92 in 5.0 mi Calm Calm - N/A   Haze
4:28 AM 77.0 °F - 57.2 °F 50% 29.92 in 4.0 mi WNW 4.6 mph - N/A   Haze
4:58 AM 76.6 °F - 57.0 °F 51% 29.92 in 5.0 mi North 6.9 mph - N/A   Haze
5:28 AM 75.2 °F - 57.2 °F 53% 29.92 in 7.0 mi NNW 5.8 mph - N/A   Clear
5:58 AM 74.7 °F - 57.4 °F 55% 29.92 in 8.0 mi NW 8.1 mph - N/A   Clear
6:28 AM 73.4 °F - 57.2 °F 57% 29.93 in 6.0 mi NW 8.1 mph - N/A   Haze
6:58 AM 73.4 °F - 56.8 °F 56% 29.94 in 6.0 mi Calm Calm - N/A   Haze
7:43 AM 78.8 °F - 57.2 °F 47% 29.95 in 7.0 mi NNW 6.9 mph - N/A   Clear
7:58 AM 77.5 °F - 57.9 °F 51% 29.94 in 6.0 mi NW 4.6 mph - N/A   Haze
8:28 AM 82.4 °F 82.0 °F 57.2 °F 42% 29.94 in 7.0 mi West 5.8 mph - N/A   Clear
8:58 AM 84.9 °F 84.4 °F 58.5 °F 41% 29.94 in 7.0 mi Calm Calm - N/A   Clear
9:58 AM 89.1 °F 87.5 °F 56.8 °F 33% 29.94 in 8.0 mi SW 3.5 mph - N/A   Clear
10:58 AM 92.1 °F 90.5 °F 56.1 °F 30% 29.94 in 8.0 mi SSE 9.2 mph - N/A   Clear
11:58 AM 95.2 °F 93.0 °F 53.8 °F 25% 29.93 in 8.0 mi South 8.1 mph - N/A   Partly Cloudy
12:58 PM 97.9 °F - 49.3 °F 19% 29.91 in 8.0 mi SW 6.9 mph - N/A   Partly Cloudy
1:36 PM 100.4 °F 98.4 °F 53.6 °F 21% 29.89 in 8.0 mi SW 15.0 mph 24.2 mph N/A   Partly Cloudy
1:48 PM 98.6 °F 96.4 °F 53.6 °F 22% 29.89 in 8.0 mi South 11.5 mph - N/A   Partly Cloudy
1:58 PM 100.6 °F 98.2 °F 53.1 °F 20% 29.88 in 9.0 mi SSW 16.1 mph 20.7 mph N/A   Clear
2:19 PM 102.2 °F - 51.8 °F 18% 29.87 in 9.0 mi South 13.8 mph - N/A   Scattered Clouds
2:58 PM 99.9 °F - 51.6 °F 20% 29.86 in 8.0 mi South 12.7 mph - N/A   Scattered Clouds
3:58 PM 99.1 °F - 50.7 °F 19% 29.84 in 8.0 mi SSE 3.5 mph - N/A   Clear
4:58 PM 99.3 °F - 48.6 °F 18% 29.83 in 6.0 mi SSW 10.4 mph - N/A   Haze
5:13 PM 96.8 °F - 50.0 °F 20% 29.83 in 7.0 mi South 13.8 mph - N/A   Mostly Cloudy
6:28 PM 96.8 °F 94.4 °F 53.6 °F 23% 29.85 in 7.0 mi SW 12.7 mph - N/A   Partly Cloudy
6:58 PM 93.7 °F 92.0 °F 55.8 °F 28% 29.87 in 7.0 mi SSE 6.9 mph - N/A   Mostly Cloudy
7:13 PM 93.2 °F 91.3 °F 55.4 °F 28% 29.88 in 6.0 mi East 5.8 mph - N/A Thunderstorm Haze
7:58 PM 88.7 °F 86.9 °F 55.0 °F 32% 29.91 in 8.0 mi SSE 24.2 mph 28.8 mph N/A   Partly Cloudy
8:28 PM 86.0 °F 84.9 °F 57.2 °F 37% 29.92 in 9.0 mi SE 23.0 mph - N/A   Mostly Cloudy
8:58 PM 85.3 °F 83.6 °F 54.1 °F 34% 29.92 in 9.0 mi SE 21.9 mph - N/A   Partly Cloudy
9:58 PM 85.6 °F 84.3 °F 55.8 °F 36% 29.91 in 8.0 mi SSW 10.4 mph - N/A   Clear
10:58 PM 84.9 °F 83.4 °F 54.5 °F 35% 29.90 in 9.0 mi SW 6.9 mph - N/A   Partly Cloudy
11:58 PM 82.8 °F 81.9 °F 54.7 °F 38% 29.90 in 9.0 mi SSW 3.5 mph - N/A   Clear